This is the latest recevied weather packets stored in our database for station/object EA3IK-7. If no packets are shown the sender has not sent any weather packets the latest 10 day(s).
| Time | Temp. | Humidity | Pressure | Rain* | Wind** | Luminosity | Snow |
|---|---|---|---|---|---|---|---|
| 1777620000 | 17.22° C | 86% | 1017.6 hPa | - | - | - | - |
| 1777620000 | 17.22° C | 86% | 1017.6 hPa | - | - | - | - |
| 1777618201 | 16.67° C | 89% | 1017.5 hPa | - | - | - | - |
| 1777616400 | 16.11° C | 90% | 1017.4 hPa | - | - | - | - |
| 1777614600 | 16.11° C | 90% | 1017.3 hPa | - | - | - | - |
| 1777612799 | 16.11° C | 90% | 1017.2 hPa | - | - | - | - |
| 1777610999 | 16.11° C | 89% | 1016.8 hPa | - | - | - | - |
| 1777609199 | 16.11° C | 89% | 1016.6 hPa | - | - | - | - |
| 1777607400 | 16.11° C | 89% | 1016.6 hPa | - | - | - | - |
| 1777607399 | 16.11° C | 89% | 1016.6 hPa | - | - | - | - |
| 1777605599 | 16.67° C | 88% | 1016.6 hPa | - | - | - | - |
| 1777603799 | 16.67° C | 87% | 1016.4 hPa | - | - | - | - |
| 1777603799 | 16.67° C | 87% | 1016.4 hPa | - | - | - | - |
| 1777601999 | 16.67° C | 86% | 1016.4 hPa | - | - | - | - |
| 1777600199 | 17.22° C | 86% | 1016.4 hPa | - | - | - | - |
| 1777598399 | 17.22° C | 86% | 1016.5 hPa | - | - | - | - |
| 1777596599 | 17.78° C | 85% | 1016.7 hPa | - | - | - | - |
| 1777594799 | 17.78° C | 84% | 1016.7 hPa | - | - | - | - |
| 1777592999 | 17.78° C | 83% | 1016.6 hPa | - | - | - | - |
| 1777591199 | 18.33° C | 82% | 1016.2 hPa | - | - | - | - |
| 1777589399 | 18.33° C | 82% | 1015.8 hPa | - | - | - | - |
| 1777587599 | 18.89° C | 81% | 1015.6 hPa | - | - | - | - |
| 1777585799 | 18.89° C | 80% | 1015.6 hPa | - | - | - | - |
| 1777583999 | 19.44° C | 79% | 1015.4 hPa | - | - | - | - |
| 1777582198 | 19.44° C | 77% | 1015.1 hPa | - | - | - | - |
* Rain since midnight (hover to see other rain measurements)
** Current wind speed in m/s (hover to see current wind gust speed)